GW3809 Weather Reports


time (UTC)temp
C
wind
direction
speed
KPH
gust
KPH
rain 1hr
cm
rain 24hr
cm
rain mn
cm
humidity
%
barometer
mb
20260510191120 32 126 8.0 17.7 0.00 0.00 0.00 70 1012.3
20260510190618 32 134 8.0 8.0 0.00 0.00 0.00 70 1012.4
20260510190115 32 125 9.7 17.7 0.00 0.00 0.00 72 1012.3
20260510185611 31 140 9.7 14.5 0.00 0.00 0.00 73 1012.3
20260510185109 31 140 9.7 16.1 0.00 0.00 0.00 73 1012.6
20260510184606 31 127 8.0 19.3 0.00 0.00 0.00 74 1012.5
20260510184102 31 139 12.9 16.1 0.00 0.00 0.00 73 1012.5
20260510183557 31 145 11.3 16.1 0.00 0.00 0.00 72 1012.5
20260510183052 31 143 9.7 12.9 0.00 0.00 0.00 73 1012.6
20260510182549 31 161 6.4 9.7 0.00 0.00 0.00 76 1012.8
20260510182044 31 140 9.7 12.9 0.00 0.00 0.00 75 1012.8
20260510181542 31 143 6.4 6.4 0.00 0.00 0.00 77 1012.8
20260510181038 30 155 3.2 9.7 0.00 0.00 0.00 75 1012.9
20260510180535 31 149 6.4 8.0 0.00 0.00 0.00 75 1012.7
20260510180033 31 164 6.4 16.1 0.00 0.00 0.00 76 1013.0
20260510175527 30 282 1.6 9.7 0.00 0.00 0.00 77 1013.0
20260510175024 31 168 3.2 11.3 0.00 0.00 0.00 77 1013.1
20260510174522 31 151 6.4 12.9 0.00 0.00 0.00 78 1013.1
20260510174019 30 130 6.4 12.9 0.00 0.00 0.00 78 1013.2
20260510173514 30 142 6.4 17.7 0.00 0.00 0.00 78 1013.1
20260510173011 30 143 11.3 16.1 0.00 0.00 0.00 78 1013.1
20260510172507 30 121 6.4 16.1 0.00 0.00 0.00 79 1013.3
20260510172004 30 148 8.0 9.7 0.00 0.00 0.00 80 1013.3
20260510171455 29 147 9.7 12.9 0.00 0.00 0.00 81 1013.2
20260510170951 29 166 3.2 14.5 0.00 0.00 0.00 82 1013.3
20260510170449 28 168 6.4 8.0 0.00 0.00 0.00 82 1013.2
20260510165944 28 142 8.0 9.7 0.00 0.00 0.00 81 1013.2
20260510165441 28 64 0.0 6.4 0.00 0.00 0.00 82 1013.2
20260510164937 28 157 4.8 8.0 0.00 0.00 0.00 81 1013.0
20260510164435 28 137 1.6 8.0 0.00 0.00 0.00 81 1013.0
20260510163935 28 71 3.2 8.0 0.00 0.00 0.00 82 1012.9
20260510163431 28 152 3.2 11.3 0.00 0.00 0.00 82 1013.1
20260510162931 28 158 4.8 8.0 0.00 0.00 0.00 82 1013.0
20260510162423 28 160 6.4 11.3 0.00 0.00 0.00 82 1012.9
20260510161919 28 141 6.4 11.3 0.00 0.00 0.00 82 1013.0
20260510161414 28 138 11.3 12.9 0.00 0.00 0.00 80 1012.7
20260510160911 29 60 6.4 8.0 0.00 0.00 0.00 82 1012.6
20260510160409 28 159 0.0 4.8 0.00 0.00 0.00 83 1012.8
20260510155902 28 36 0.0 8.0 0.00 0.00 0.00 83 1012.8
20260510155359 28 41 3.2 9.7 0.00 0.00 0.00 86 1012.9
20260510154855 27 141 8.0 14.5 0.00 0.00 0.00 86 1013.1
20260510154351 27 154 3.2 6.4 0.00 0.00 0.00 85 1012.9
20260510153845 27 89 3.2 8.0 0.00 0.00 0.00 87 1013.0
20260510153342 27 137 8.0 9.7 0.00 0.00 0.00 86 1012.9
20260510152839 27 148 6.4 8.0 0.00 0.00 0.00 88 1012.9
20260510152336 27 82 3.2 6.4 0.00 0.00 0.00 89 1012.9
20260510151832 26 135 1.6 9.7 0.00 0.00 0.00 89 1012.9
20260510151330 26 158 4.8 8.0 0.00 0.00 0.00 89 1012.9
20260510150826 26 67 1.6 6.4 0.00 0.00 0.00 90 1013.1
20260510150321 26 136 4.8 8.0 0.00 0.00 0.00 91 1012.9
20260510145818 26 140 8.0 11.3 0.00 0.00 0.00 90 1013.2
20260510145314 26 142 4.8 8.0 0.00 0.00 0.00 91 1013.1
20260510144811 26 139 4.8 11.3 0.00 0.00 0.00 90 1013.0
20260510144308 26 133 9.7 12.9 0.00 0.00 0.00 90 1013.0
20260510143807 26 129 4.8 11.3 0.00 0.00 0.00 90 1012.9
20260510143304 26 137 6.4 8.0 0.00 0.00 0.00 91 1012.9
20260510142801 26 128 3.2 6.4 0.00 0.00 0.00 92 1012.9
20260510142257 26 134 9.7 14.5 0.00 0.00 0.00 92 1013.0
20260510141755 25 123 0.0 9.7 0.00 0.00 0.00 93 1012.9
20260510141252 25 116 3.2 8.0 0.00 0.00 0.00 94 1013.1
20260510140749 25 109 3.2 6.4 0.00 0.00 0.00 95 1013.1
20260510140244 25 47 4.8 6.4 0.00 0.00 0.00 95 1012.9
20260510135738 25 55 3.2 6.4 0.00 0.00 0.00 95 1012.8
20260510135234 25 37 3.2 6.4 0.00 0.00 0.00 96 1012.8
20260510134732 25 149 0.0 6.4 0.00 0.00 0.00 96 1012.8
20260510134229 25 79 4.8 4.8 0.00 0.00 0.00 97 1012.9
20260510133724 24 45 1.6 6.4 0.00 0.00 0.00 97 1012.9
20260510133220 24 24 3.2 6.4 0.00 0.00 0.00 97 1012.8
20260510132717 24 132 3.2 4.8 0.00 0.00 0.00 97 1012.9
20260510132214 24 107 1.6 6.4 0.00 0.00 0.00 97 1012.7
20260510131711 24 67 3.2 4.8 0.00 0.00 0.00 97 1012.8
20260510131210 24 21 1.6 3.2 0.00 0.00 0.00 98 1012.7
20260510130705 23 136 1.6 4.8 0.00 0.00 0.00 98 1012.6
20260510130202 23 161 1.6 4.8 0.00 0.00 0.00 98 1012.5
20260510125653 23 125 3.2 4.8 0.00 0.00 0.00 98 1012.6
20260510125149 23 75 1.6 3.2 0.00 0.00 0.00 98 1012.4
20260510124646 23 101 0.0 3.2 0.00 0.00 0.00 98 1012.5
20260510124143 23 84 1.6 4.8 0.00 0.00 0.00 98 1012.3
20260510123638 23 168 0.0 3.2 0.00 0.00 0.00 98 1012.3
20260510123135 23 125 0.0 3.2 0.00 0.00 0.00 98 1012.3
20260510122631 23 146 3.2 3.2 0.00 0.00 0.00 98 1012.2
20260510122127 23 175 0.0 3.2 0.00 0.00 0.00 98 1012.3
20260510121624 23 135 1.6 3.2 0.00 0.00 0.00 97 1012.1
20260510121121 23 40 3.2 3.2 0.00 0.00 0.00 97 1012.0
20260510120619 23 17 3.2 3.2 0.00 0.00 0.00 97 1011.8
20260510120114 23 33 1.6 3.2 0.00 0.00 0.00 97 1011.7
20260510115611 23 124 0.0 3.2 0.00 0.00 0.00 97 1011.6
20260510115108 23 288 0.0 1.6 0.00 0.00 0.00 97 1011.7
20260510114604 23 88 3.2 4.8 0.00 0.00 0.00 97 1011.5
20260510114100 23 65 3.2 3.2 0.00 0.00 0.00 97 1011.5
20260510113555 23 254 0.0 4.8 0.00 0.00 0.00 97 1011.5
20260510113054 23 48 1.6 3.2 0.00 0.00 0.00 97 1011.5
20260510112550 23 24 0.0 3.2 0.00 0.00 0.00 97 1011.6
20260510112046 23 57 0.0 3.2 0.00 0.00 0.00 97 1011.5
20260510111543 23 34 0.0 3.2 0.00 0.00 0.00 97 1011.5
20260510111039 23 67 0.0 0.0 0.00 0.00 0.00 97 1011.4
20260510110535 23 106 0.0 1.6 0.00 0.00 0.00 97 1011.4
20260510110032 23 116 0.0 3.2 0.00 0.00 0.00 96 1011.4
20260510105527 23 18 1.6 3.2 0.00 0.00 0.00 96 1011.3
20260510105022 23 84 0.0 1.6 0.00 0.00 0.00 96 1011.3
20260510104519 23 74 1.6 3.2 0.00 0.00 0.00 96 1011.3
20260510104015 23 330 0.0 1.6 0.00 0.00 0.00 96 1011.2
20260510103513 23 349 0.0 3.2 0.00 0.00 0.00 96 1011.3
20260510103009 23 311 1.6 3.2 0.00 0.00 0.00 96 1011.4
20260510102505 23 9 1.6 3.2 0.00 0.00 0.00 96 1011.2
20260510102001 23 24 3.2 3.2 0.00 0.00 0.00 96 1011.2
20260510101458 23 330 0.0 3.2 0.00 0.00 0.00 96 1011.4
20260510100957 23 7 0.0 3.2 0.00 0.00 0.00 96 1011.3
20260510100453 23 327 1.6 3.2 0.00 0.00 0.00 96 1011.4
20260510095949 23 25 3.2 4.8 0.00 0.00 0.00 96 1011.5
20260510095445 23 356 0.0 3.2 0.00 0.00 0.00 96 1011.2
20260510094944 23 115 0.0 3.2 0.00 0.00 0.00 96 1011.0
20260510094439 23 112 3.2 3.2 0.00 0.00 0.00 96 1011.2
20260510093935 23 75 0.0 3.2 0.00 0.00 0.00 96 1011.2
20260510093430 23 37 0.0 3.2 0.00 0.00 0.00 96 1011.2
20260510092927 23 100 0.0 3.2 0.00 0.00 0.00 96 1011.2
20260510092425 23 142 1.6 3.2 0.00 0.00 0.00 96 1011.0
20260510091924 23 250 0.0 0.0 0.00 0.00 0.00 96 1010.9
20260510091421 23 91 0.0 1.6 0.00 0.00 0.00 95 1011.2
20260510090918 23 280 1.6 3.2 0.00 0.00 0.00 95 1011.0
20260510090414 23 58 0.0 3.2 0.00 0.00 0.00 95 1011.0
20260510085910 23 115 0.0 3.2 0.00 0.00 0.00 95 1011.2
20260510085405 23 181 1.6 3.2 0.00 0.00 0.00 95 1011.0
20260510084901 23 175 0.0 3.2 0.00 0.00 0.00 95 1011.1
20260510084359 23 152 1.6 1.6 0.00 0.00 0.00 95 1011.3
20260510083855 23 147 1.6 4.8 0.00 0.00 0.00 95 1011.3
20260510083352 23 156 3.2 3.2 0.00 0.00 0.00 95 1011.4
20260510082847 23 211 1.6 4.8 0.00 0.00 0.00 95 1011.3
20260510082345 23 196 1.6 3.2 0.00 0.00 0.00 95 1011.4
20260510081838 23 140 0.0 1.6 0.00 0.00 0.00 95 1011.6
20260510081335 24 137 1.6 4.8 0.00 0.00 0.00 95 1011.8
20260510080831 24 139 3.2 6.4 0.00 0.00 0.00 95 1011.9
20260510080325 24 155 0.0 3.2 0.00 0.00 0.00 95 1012.0
20260510075823 24 157 0.0 4.8 0.00 0.00 0.00 95 1012.0
20260510075320 24 193 3.2 3.2 0.00 0.00 0.00 95 1012.2
20260510074816 24 117 4.8 6.4 0.00 0.00 0.00 95 1012.1
20260510074314 24 172 1.6 4.8 0.00 0.00 0.00 95 1012.1
20260510073809 24 131 6.4 8.0 0.00 0.00 0.00 95 1012.0
20260510073305 24 136 4.8 4.8 0.00 0.00 0.00 95 1012.1
20260510072801 24 142 4.8 6.4 0.00 0.00 0.00 94 1012.0
20260510072258 24 143 4.8 4.8 0.00 0.00 0.00 94 1012.0
20260510071754 24 146 6.4 6.4 0.00 0.00 0.00 94 1012.2
20260510071251 24 141 3.2 6.4 0.00 0.00 0.00 94 1012.1
20260510070750 24 127 8.0 9.7 0.00 0.00 0.00 94 1012.2
20260510070247 24 133 6.4 8.0 0.00 0.00 0.00 94 1012.2
20260510065746 24 108 1.6 9.7 0.00 0.00 0.00 94 1012.2
20260510065243 24 143 3.2 9.7 0.00 0.00 0.00 94 1012.2
20260510064739 24 128 6.4 9.7 0.00 0.00 0.00 94 1011.9
20260510064238 24 130 9.7 11.3 0.00 0.00 0.00 93 1012.1
20260510063733 24 133 4.8 9.7 0.00 0.00 0.00 93 1012.1
20260510063230 24 128 4.8 9.7 0.00 0.00 0.00 93 1012.1
20260510062727 24 139 6.4 8.0 0.00 0.00 0.00 93 1011.9
20260510062223 24 136 6.4 9.7 0.00 0.00 0.00 93 1012.2
20260510061718 24 160 4.8 8.0 0.00 0.00 0.00 93 1012.1
20260510061216 24 169 4.8 8.0 0.00 0.00 0.00 93 1012.0
20260510060712 24 144 4.8 6.4 0.00 0.00 0.00 92 1012.1
20260510060208 25 140 4.8 6.4 0.00 0.00 0.00 92 1012.1
20260510055705 25 163 3.2 6.4 0.00 0.00 0.00 92 1012.1
20260510055203 25 173 3.2 6.4 0.00 0.00 0.00 92 1012.0
20260510054658 25 163 3.2 9.7 0.00 0.00 0.00 92 1012.3
20260510054154 25 140 3.2 4.8 0.00 0.00 0.00 92 1012.1
20260510053653 25 175 6.4 9.7 0.00 0.00 0.00 92 1012.2
20260510053150 25 167 1.6 6.4 0.00 0.00 0.00 92 1012.0
20260510052646 25 161 3.2 4.8 0.00 0.00 0.00 92 1012.3
20260510052142 25 139 6.4 6.4 0.00 0.00 0.00 92 1012.2
20260510051638 25 119 6.4 6.4 0.00 0.00 0.00 92 1012.1
20260510051135 25 146 4.8 6.4 0.00 0.00 0.00 92 1012.0
20260510050632 25 146 3.2 4.8 0.00 0.00 0.00 92 1012.1
20260510050129 25 142 3.2 4.8 0.00 0.00 0.00 91 1012.2
20260510045626 25 135 3.2 3.2 0.00 4.37 4.37 91 1012.3
20260510045122 25 158 3.2 6.4 0.00 4.37 4.37 91 1012.3
20260510044619 25 148 3.2 4.8 0.00 4.37 4.37 91 1012.3
20260510044116 25 120 3.2 3.2 0.00 4.37 4.37 90 1012.3
20260510043612 25 74 0.0 3.2 0.00 4.37 4.37 90 1012.3
20260510043108 25 130 1.6 4.8 0.00 4.37 4.37 89 1012.4
20260510042601 25 155 3.2 8.0 0.00 4.37 4.37 89 1012.5
20260510042057 25 127 0.0 3.2 0.00 4.37 4.37 89 1012.6
20260510041554 25 123 3.2 6.4 0.00 4.37 4.37 89 1012.4
20260510041051 25 145 3.2 4.8 0.00 4.37 4.37 88 1012.4
20260510040548 25 147 3.2 8.0 0.00 4.37 4.37 88 1012.3
20260510040044 25 204 0.0 4.8 0.00 4.37 4.37 87 1012.4
20260510035540 25 149 6.4 9.7 0.00 4.37 4.37 87 1012.2
20260510035040 25 131 8.0 12.9 0.00 4.37 4.37 87 1012.2
20260510034539 25 129 11.3 11.3 0.00 4.37 4.37 87 1012.1
20260510034035 25 140 6.4 8.0 0.00 4.37 4.37 87 1012.1
20260510033530 25 130 6.4 9.7 0.00 4.37 4.37 86 1011.8
20260510033029 25 128 8.0 9.7 0.00 4.37 4.37 86 1011.9
20260510032525 25 139 4.8 9.7 0.00 4.37 4.37 86 1012.0
20260510032020 25 129 4.8 14.5 0.00 4.37 4.37 85 1011.8
20260510031516 25 135 8.0 11.3 0.00 4.37 4.37 85 1011.6
20260510031012 25 138 8.0 12.9 0.00 4.37 4.37 84 1011.6
20260510030507 26 135 14.5 16.1 0.00 4.37 4.37 84 1011.6
20260510030005 26 135 6.4 12.9 0.00 4.37 4.37 84 1011.4
20260510025502 26 132 6.4 8.0 0.00 4.37 4.37 83 1011.2
20260510025000 26 124 9.7 9.7 0.00 4.37 4.37 83 1011.2
20260510024456 26 95 4.8 8.0 0.00 4.37 4.37 82 1011.1
20260510023952 26 150 11.3 12.9 0.00 4.37 4.37 81 1011.1
20260510023449 26 136 6.4 17.7 0.00 4.37 4.37 81 1011.1
20260510022946 26 151 11.3 12.9 0.00 4.37 4.37 80 1011.1
20260510022445 26 106 4.8 8.0 0.00 4.37 4.37 79 1011.1
20260510021944 26 127 11.3 12.9 0.00 4.37 4.37 78 1011.0
20260510021442 26 134 4.8 9.7 0.00 4.37 4.37 78 1010.8
20260510020938 26 103 4.8 9.7 0.00 4.37 4.37 77 1010.8
20260510020432 26 139 4.8 14.5 0.00 4.37 4.37 77 1010.8
20260510015928 26 128 6.4 17.7 0.00 4.37 4.37 76 1010.3
20260510015425 26 132 9.7 12.9 0.00 4.37 4.37 76 1010.5
20260510014919 27 136 11.3 17.7 0.00 4.37 4.37 76 1010.5
20260510014417 27 134 9.7 12.9 0.00 4.37 4.37 76 1010.3
20260510013914 27 129 6.4 16.1 0.00 4.37 4.37 76 1010.2
20260510013408 27 147 3.2 9.7 0.00 4.37 4.37 75 1010.2
20260510012904 27 146 6.4 14.5 0.00 4.37 4.37 75 1010.0
20260510012359 27 140 6.4 12.9 0.00 4.37 4.37 75 1010.1
20260510011854 27 140 11.3 20.9 0.00 4.37 4.37 75 1010.1
20260510011349 27 143 11.3 17.7 0.00 4.37 4.37 75 1009.9
20260510010846 27 138 4.8 19.3 0.00 4.37 4.37 74 1009.9
20260510010343 27 89 6.4 9.7 0.00 4.37 4.37 74 1009.9
20260510005840 27 145 12.9 16.1 0.00 4.37 4.37 74 1009.7
20260510005336 27 132 6.4 12.9 0.00 4.37 4.37 74 1009.7
20260510004834 27 91 6.4 17.7 0.00 4.37 4.37 73 1009.6
20260510004331 27 135 8.0 17.7 0.00 4.37 4.37 73 1009.8
20260510003829 27 138 6.4 22.5 0.00 4.37 4.37 73 1009.6
20260510003326 27 145 8.0 17.7 0.00 4.37 4.37 73 1009.6
20260510002824 27 310 4.8 20.9 0.00 4.37 4.37 73 1009.4
20260510002322 28 124 9.7 17.7 0.00 4.37 4.37 73 1009.5
20260510001818 28 105 8.0 17.7 0.00 4.37 4.37 73 1009.5
20260510001317 28 124 6.4 16.1 0.00 4.37 4.37 72 1009.5
20260510000812 28 144 12.9 16.1 0.00 4.37 4.37 73 1009.5
20260510000311 28 58 6.4 14.5 0.00 4.37 4.37 71 1009.3
20260509235807 28 131 8.0 9.7 0.00 4.37 4.37 72 1009.4
20260509235258 28 122 4.8 11.3 0.00 4.37 4.37 72 1009.4
20260509234754 28 95 3.2 9.7 0.00 4.37 4.37 73 1009.4
20260509234251 28 131 12.9 17.7 0.00 4.37 4.37 72 1009.3
20260509233749 28 114 9.7 16.1 0.00 4.37 4.37 71 1009.3
20260509233246 28 75 9.7 14.5 0.00 4.37 4.37 70 1009.3
20260509232742 28 126 8.0 17.7 0.00 4.37 4.37 69 1009.4
20260509232240 28 96 3.2 9.7 0.00 4.37 4.37 70 1009.2
20260509231736 28 99 6.4 12.9 0.00 4.37 4.37 70 1009.3
20260509231233 29 134 3.2 14.5 0.00 4.37 4.37 70 1009.2
20260509230730 29 142 12.9 14.5 0.00 4.37 4.37 70 1009.1
20260509230227 29 70 9.7 12.9 0.00 4.37 4.37 71 1009.3
20260509225722 29 133 12.9 17.7 0.00 4.37 4.37 70 1009.2
20260509225218 29 134 3.2 16.1 0.00 4.37 4.37 71 1009.3
20260509224714 29 107 4.8 12.9 0.00 4.37 4.37 71 1009.4
20260509224211 29 122 8.0 16.1 0.00 4.37 4.37 71 1009.1
20260509223708 29 113 8.0 12.9 0.00 4.37 4.37 71 1009.2
20260509223205 29 131 6.4 17.7 0.00 4.37 4.37 72 1009.2
20260509222702 30 127 11.3 17.7 0.00 4.37 4.37 69 1009.3
20260509222157 30 39 1.6 9.7 0.00 4.37 4.37 69 1009.2
20260509221648 30 25 8.0 12.9 0.00 4.37 4.37 68 1009.3
20260509221144 30 337 3.2 9.7 0.00 4.37 4.37 68 1009.3
20260509220640 30 79 3.2 8.0 0.00 4.37 4.37 68 1009.2
20260509220136 30 53 6.4 9.7 0.00 4.37 4.37 69 1009.2
20260509215632 30 57 4.8 8.0 0.00 4.37 4.37 69 1009.1
20260509215129 30 28 6.4 9.7 0.00 4.37 4.37 68 1009.2
20260509214626 30 145 4.8 11.3 0.00 4.37 4.37 67 1009.3
20260509214122 30 113 6.4 8.0 0.00 4.37 4.37 67 1009.3
20260509213618 30 57 6.4 8.0 0.00 4.37 4.37 67 1009.3
20260509213110 30 88 3.2 8.0 0.00 4.37 4.37 66 1009.0
20260509212607 31 76 3.2 12.9 0.00 4.37 4.37 66 1009.3
20260509212104 31 142 6.4 6.4 0.00 4.37 4.37 66 1009.5
20260509211600 31 101 1.6 4.8 0.00 4.37 4.37 66 1009.4
20260509211057 31 15 3.2 8.0 0.00 4.37 4.37 66 1009.6
20260509210553 31 37 4.8 6.4 0.00 4.37 4.37 65 1009.4
20260509210050 31 38 4.8 8.0 0.00 4.37 4.37 65 1009.4
20260509205544 31 22 3.2 6.4 0.00 4.37 4.37 66 1009.3
20260509205039 31 355 3.2 6.4 0.00 4.37 4.37 65 1009.5
20260509204536 31 59 3.2 4.8 0.00 4.37 4.37 64 1009.6
20260509204032 31 149 3.2 4.8 0.00 4.37 4.37 64 1009.4
20260509203527 32 7 3.2 4.8 0.00 4.37 4.37 63 1009.6
20260509203027 32 131 3.2 4.8 0.00 4.37 4.37 63 1009.6
20260509202521 31 188 3.2 8.0 0.00 4.37 4.37 63 1009.7
20260509202017 31 74 6.4 8.0 0.00 4.37 4.37 64 1009.6
20260509201512 31 327 6.4 6.4 0.00 4.37 4.37 66 1009.5
20260509201010 31 149 4.8 6.4 0.00 4.37 4.37 66 1009.7
20260509200509 31 359 3.2 6.4 0.00 4.37 4.37 65 1009.8
20260509200006 31 315 3.2 6.4 0.00 4.37 4.37 65 1009.7
20260509195501 31 190 3.2 6.4 0.00 4.37 4.37 66 1009.7
20260509194955 31 139 3.2 9.7 0.00 4.37 4.37 65 1009.8
20260509194452 31 132 8.0 9.7 0.00 4.37 4.37 65 1010.0
20260509193949 31 183 4.8 6.4 0.00 4.37 4.37 65 1010.0
20260509193448 31 27 1.6 4.8 0.00 4.37 4.37 65 1010.1
20260509192945 31 353 1.6 4.8 0.00 4.37 4.37 64 1010.3
20260509192442 31 219 3.2 4.8 0.00 4.37 4.37 66 1010.3
20260509191937 30 155 3.2 4.8 0.00 4.37 4.37 66 1010.4